FW1003 Weather Reports


Display with metric or nautical units.
time (UTC)temp
F
wind
direction
speed
MPH
gust
MPH
rain 1hr
in
rain 24hr
in
rain mn
in
humidity
%
barometer
mb
20260901064524 89 196 0.0 6.0 0.00 0.00 0.00 56 1013.0
20260901063121 88 184 1.0 4.0 0.00 0.00 0.00 58 1012.9
20260901061526 88 186 1.0 6.0 0.00 0.00 0.00 58 1013.0
20260901060014 87 148 1.0 5.0 0.00 0.00 0.00 61 1013.0
20260901054510 87 88 2.0 4.0 0.00 0.00 0.00 61 1012.9
20260901053007 85 128 1.0 3.0 0.00 0.00 0.00 62 1012.9
20260901051501 84 183 0.0 3.0 0.00 0.00 0.00 64 1012.7
20260901050056 83 184 0.0 3.0 0.00 0.00 0.00 67 1012.8
20260901044558 81 197 0.0 0.0 0.00 0.00 0.00 69 1012.6
20260901043048 79 284 0.0 0.0 0.00 0.00 0.00 71 1012.6
20260901041543 79 284 0.0 0.0 0.00 0.00 0.00 73 1012.6
20260901040048 77 284 0.0 0.0 0.00 0.00 0.00 74 1012.4
20260901034537 76 284 0.0 0.0 0.00 0.00 0.00 73 1012.4
20260901033051 76 284 0.0 0.0 0.00 0.00 0.00 73 1012.3
20260901031532 76 284 0.0 0.0 0.00 0.00 0.00 74 1012.2
20260901030033 76 284 0.0 0.0 0.00 0.00 0.00 75 1012.1
20260901024527 75 284 0.0 0.0 0.00 0.00 0.00 74 1012.2
20260901023023 76 284 0.0 0.0 0.00 0.00 0.00 74 1012.1
20260901021523 76 284 0.0 0.0 0.00 0.00 0.00 74 1011.9
20260901020031 76 284 0.0 0.0 0.00 0.00 0.00 74 1012.0
20260901014521 76 284 0.0 0.0 0.00 0.00 0.00 73 1011.9
20260901013020 76 284 0.0 0.0 0.00 0.00 0.00 72 1012.0
20260901011519 76 284 0.0 0.0 0.00 0.00 0.00 72 1011.9
20260901010019 77 284 0.0 0.0 0.00 0.00 0.00 72 1011.9
20260901004516 77 284 0.0 0.0 0.00 0.00 0.00 72 1012.0
20260901003032 77 284 0.0 0.0 0.00 0.00 0.00 71 1011.9
20260901001515 77 284 0.0 0.0 0.00 0.00 0.00 71 1011.9
20260901000028 77 284 0.0 0.0 0.00 0.00 0.00 71 1011.9
20260831234513 77 284 0.0 0.0 0.00 0.00 0.00 71 1011.9
20260831233013 77 284 0.0 0.0 0.00 0.00 0.00 70 1011.8
20260831231510 78 284 0.0 0.0 0.00 0.00 0.00 70 1011.9
20260831230015 78 284 0.0 3.0 0.00 0.00 0.00 70 1012.0
20260831224507 78 284 0.0 2.0 0.00 0.00 0.00 70 1011.9
20260831223006 78 284 0.0 1.0 0.00 0.00 0.00 70 1012.0
20260831221506 79 284 0.0 1.0 0.00 0.00 0.00 70 1012.1
20260831220005 79 284 0.0 2.0 0.00 0.00 0.00 69 1012.2
20260831214502 79 284 0.0 1.0 0.00 0.00 0.00 69 1012.2
20260831213100 79 284 1.0 2.0 0.00 0.00 0.00 69 1012.2
20260831213004 79 284 1.0 3.0 0.00 0.00 0.00 69 1012.2
20260831211600 79 284 0.0 2.0 0.00 0.00 0.00 69 1012.3
20260831210057 79 284 0.0 0.0 0.00 0.00 0.00 69 1012.4
20260831204557 80 284 0.0 1.0 0.00 0.00 0.00 68 1012.3
20260831203104 80 284 0.0 1.0 0.00 0.00 0.00 68 1012.4
20260831201556 80 284 0.0 2.0 0.00 0.00 0.00 68 1012.4
20260831200107 81 284 0.0 1.0 0.00 0.00 0.00 68 1012.5
20260831194610 81 284 0.0 2.0 0.00 0.00 0.00 67 1012.5
20260831193054 81 284 0.0 1.0 0.00 0.00 0.00 67 1012.6
20260831191553 82 284 0.0 1.0 0.00 0.00 0.00 67 1012.5
20260831190105 82 284 0.0 2.0 0.00 0.00 0.00 66 1012.5
20260831184552 82 284 0.0 2.0 0.00 0.00 0.00 65 1012.5
20260831183053 82 284 0.0 1.0 0.00 0.00 0.00 65 1012.5
20260831181558 83 284 0.0 1.0 0.00 0.00 0.00 65 1012.6
20260831180058 83 284 0.0 1.0 0.00 0.00 0.00 64 1012.6
20260831174551 83 284 0.0 0.0 0.00 0.00 0.00 63 1012.5
20260831173056 84 284 0.0 0.0 0.00 0.00 0.00 64 1012.4
20260831171549 84 284 0.0 0.0 0.00 0.00 0.00 63 1012.3
20260831170049 84 284 0.0 0.0 0.00 0.00 0.00 63 1012.2
20260831164548 85 284 0.0 2.0 0.00 0.00 0.00 62 1012.0
20260831163047 85 337 0.0 3.0 0.00 0.00 0.00 62 1012.0
20260831161548 86 338 0.0 2.0 0.00 0.00 0.00 61 1011.9
20260831160047 86 342 1.0 4.0 0.00 0.00 0.00 61 1012.0
20260831154549 86 332 0.0 3.0 0.00 0.00 0.00 59 1011.9
20260831153045 87 323 1.0 4.0 0.00 0.00 0.00 59 1011.9
20260831151545 88 71 0.0 3.0 0.00 0.00 0.00 59 1011.9
20260831150045 88 318 1.0 5.0 0.00 0.00 0.00 58 1011.9
20260831144551 88 347 0.0 6.0 0.00 0.00 0.00 57 1011.9
20260831143044 89 333 0.0 3.0 0.00 0.00 0.00 55 1011.8
20260831141545 90 15 2.0 6.0 0.00 0.00 0.00 53 1011.6
20260831140042 91 124 2.0 5.0 0.00 0.00 0.00 52 1011.8
20260831134542 92 70 1.0 6.0 0.00 0.00 0.00 52 1011.5
20260831133041 92 325 1.0 9.0 0.00 0.00 0.00 52 1011.6
20260831131543 92 136 1.0 4.0 0.00 0.00 0.00 52 1011.6
20260831130040 92 46 2.0 5.0 0.00 0.00 0.00 52 1011.6
20260831124539 93 115 1.0 6.0 0.00 0.00 0.00 52 1011.5
20260831123039 92 146 1.0 8.0 0.00 0.00 0.00 53 1011.5
20260831121539 93 317 2.0 5.0 0.00 0.00 0.00 52 1011.5
20260831120042 93 46 2.0 8.0 0.00 0.00 0.00 52 1011.6
20260831114637 93 119 2.0 6.0 0.00 0.00 0.00 51 1011.5
20260831113036 93 77 2.0 6.0 0.00 0.00 0.00 52 1011.7
20260831111535 94 107 2.0 6.0 0.00 0.00 0.00 51 1011.5
20260831110041 93 332 2.0 7.0 0.00 0.00 0.00 52 1011.7
20260831104534 93 221 2.0 6.0 0.00 0.00 0.00 51 1011.8
20260831103027 93 157 3.0 6.0 0.00 0.00 0.00 51 1011.9
20260831101528 93 268 3.0 9.0 0.00 0.00 0.00 49 1012.1
20260831100025 93 123 2.0 7.0 0.00 0.00 0.00 48 1011.9
20260831094525 92 171 2.0 9.0 0.00 0.00 0.00 50 1012.0
20260831093024 93 136 1.0 8.0 0.00 0.00 0.00 51 1012.0
20260831091535 93 309 2.0 7.0 0.00 0.00 0.00 53 1012.1
20260831090017 92 281 2.0 6.0 0.00 0.00 0.00 52 1012.2
20260831084514 92 327 1.0 6.0 0.00 0.00 0.00 51 1012.3
20260831083012 92 144 2.0 6.0 0.00 0.00 0.00 52 1012.3
20260831081527 92 281 2.0 9.0 0.00 0.00 0.00 52 1012.6
20260831080009 91 331 1.0 5.0 0.00 0.00 0.00 53 1012.5
20260831074501 91 166 1.0 6.0 0.00 0.00 0.00 54 1012.5
20260831073115 91 170 2.0 7.0 0.00 0.00 0.00 55 1012.4
20260831071557 90 173 1.0 4.0 0.00 0.00 0.00 54 1012.4
20260831070054 90 360 1.0 7.0 0.00 0.00 0.00 54 1012.3